UCA4966 KSGF-KIAH

Flight info

Callsign UCA4966
Flight time 1h 36m
Altitude 30000
Route EOS TUL J87 CVE GUSHR3
Aircraft E45X/M-SABDFGRW/S

Departure

Time 2026-05-05 23:59
Airport Springfield Branson National Airport (KSGF)

Arrival

Time 2026-05-06 01:35
Airport George Bush Intercontinental Airport (KIAH)
Time Latitude Longitude Altitude Speed Heading
2026-05-05 23:48 37.23970 -93.39565 1274 ft 0 kts 292°
2026-05-05 23:52 37.23920 -93.39505 1274 ft 0 kts 21°
2026-05-05 23:54 37.23924 -93.39503 1274 ft 1 kts 21°
2026-05-05 23:55 37.23957 -93.39487 1274 ft 10 kts 19°
2026-05-05 23:55 37.24060 -93.39434 1274 ft 19 kts 22°
2026-05-05 23:55 37.24184 -93.39348 1274 ft 19 kts 84°
2026-05-05 23:55 37.24136 -93.39161 1274 ft 24 kts 113°
2026-05-05 23:56 37.24075 -93.38957 1274 ft 23 kts 123°
2026-05-05 23:56 37.23929 -93.38966 1274 ft 23 kts 199°
2026-05-05 23:56 37.23773 -93.39043 1274 ft 24 kts 203°
2026-05-05 23:56 37.23615 -93.39062 1274 ft 21 kts 126°
2026-05-05 23:57 37.23579 -93.38923 1274 ft 5 kts 68°
2026-05-05 23:57 37.23581 -93.38921 1274 ft 0 kts 26°
2026-05-05 23:58 37.23650 -93.38882 1274 ft 39 kts 23°
2026-05-05 23:58 37.24137 -93.38634 1274 ft 108 kts 22°
2026-05-05 23:58 37.24956 -93.38226 1539 ft 130 kts 23°
2026-05-05 23:59 37.25816 -93.37858 2157 ft 132 kts 21°
2026-05-05 23:59 37.26686 -93.37535 2777 ft 134 kts 20°
2026-05-05 23:59 37.27609 -93.37212 3267 ft 150 kts 20°
2026-05-05 23:59 37.28721 -93.36816 3445 ft 184 kts 19°
2026-05-06 00:00 37.30068 -93.36304 3704 ft 216 kts 20°
2026-05-06 00:00 37.31606 -93.35696 4093 ft 241 kts 19°
2026-05-06 00:00 37.33239 -93.35279 4835 ft 250 kts 359°
2026-05-06 00:00 37.34908 -93.35974 5507 ft 262 kts 324°
2026-05-06 00:01 37.36047 -93.37734 6272 ft 263 kts 289°
2026-05-06 00:01 37.36237 -93.39933 7175 ft 255 kts 256°
2026-05-06 00:01 37.35648 -93.41973 8173 ft 248 kts 246°
2026-05-06 00:01 37.34893 -93.43855 9071 ft 245 kts 240°
2026-05-06 00:02 37.34030 -93.45676 9909 ft 245 kts 239°
2026-05-06 00:02 37.33136 -93.47486 10661 ft 247 kts 239°
2026-05-06 00:02 37.32177 -93.49405 10943 ft 268 kts 239°
2026-05-06 00:02 37.31139 -93.51474 11213 ft 288 kts 239°
2026-05-06 00:03 37.30039 -93.53663 11511 ft 305 kts 239°
2026-05-06 00:03 37.28902 -93.55926 12122 ft 310 kts 239°
2026-05-06 00:03 37.27769 -93.58177 12883 ft 309 kts 239°
2026-05-06 00:03 37.26618 -93.60463 13489 ft 313 kts 239°
2026-05-06 00:04 37.25455 -93.62772 14126 ft 316 kts 239°
2026-05-06 00:04 37.24267 -93.65129 14722 ft 319 kts 239°
2026-05-06 00:04 37.23104 -93.67434 15334 ft 321 kts 239°
2026-05-06 00:04 37.21914 -93.69791 15933 ft 324 kts 240°
2026-05-06 00:05 37.19479 -93.74610 17034 ft 330 kts 240°
2026-05-06 00:05 37.18246 -93.77047 17626 ft 331 kts 240°
2026-05-06 00:05 37.16997 -93.79514 18124 ft 335 kts 240°
2026-05-06 00:06 37.15739 -93.81997 18709 ft 335 kts 241°
2026-05-06 00:06 37.14499 -93.84443 19247 ft 336 kts 241°
2026-05-06 00:06 37.13221 -93.86961 19768 ft 337 kts 241°
2026-05-06 00:06 37.11962 -93.89440 20324 ft 337 kts 241°
2026-05-06 00:07 37.10681 -93.91959 20766 ft 341 kts 241°
2026-05-06 00:07 37.09416 -93.94450 21254 ft 342 kts 241°
2026-05-06 00:07 37.08128 -93.96977 21765 ft 342 kts 241°
2026-05-06 00:07 37.06831 -93.99523 22216 ft 344 kts 241°
2026-05-06 00:08 37.05551 -94.02031 22660 ft 345 kts 241°
2026-05-06 00:08 37.04246 -94.04590 23109 ft 346 kts 241°
2026-05-06 00:08 37.02945 -94.07140 23561 ft 347 kts 241°
2026-05-06 00:08 37.01627 -94.09717 23983 ft 348 kts 242°
2026-05-06 00:09 37.00325 -94.12266 24380 ft 350 kts 242°
2026-05-06 00:09 36.99009 -94.14837 24877 ft 349 kts 242°
2026-05-06 00:09 36.97684 -94.17425 25251 ft 351 kts 242°
2026-05-06 00:09 36.96361 -94.20003 25777 ft 349 kts 242°
2026-05-06 00:10 36.95053 -94.22555 26346 ft 346 kts 242°
2026-05-06 00:10 36.93748 -94.25097 26878 ft 343 kts 243°
2026-05-06 00:10 36.92463 -94.27598 27416 ft 341 kts 243°
2026-05-06 00:10 36.91185 -94.30085 27950 ft 337 kts 243°
2026-05-06 00:11 36.89913 -94.32558 28433 ft 336 kts 243°
2026-05-06 00:11 36.88645 -94.35020 28926 ft 333 kts 244°
2026-05-06 00:11 36.87396 -94.37447 29452 ft 330 kts 244°
2026-05-06 00:11 36.86147 -94.39871 29843 ft 331 kts 243°
2026-05-06 00:12 36.84887 -94.42315 29861 ft 341 kts 244°
2026-05-06 00:12 36.82327 -94.47555 29869 ft 357 kts 246°
2026-05-06 00:13 36.79790 -94.53047 29864 ft 369 kts 245°
2026-05-06 00:13 36.77203 -94.58562 29847 ft 368 kts 245°
2026-05-06 00:14 36.74591 -94.64113 29861 ft 367 kts 245°
2026-05-06 00:14 36.71995 -94.69617 29882 ft 367 kts 244°
2026-05-06 00:15 36.69384 -94.75147 29885 ft 367 kts 244°
2026-05-06 00:15 36.66763 -94.80689 29880 ft 368 kts 244°
2026-05-06 00:16 36.64145 -94.86211 29883 ft 368 kts 245°
2026-05-06 00:16 36.61524 -94.91733 29884 ft 368 kts 244°
2026-05-06 00:17 36.58904 -94.97245 29870 ft 368 kts 244°
2026-05-06 00:17 36.56273 -95.02770 29868 ft 367 kts 244°
2026-05-06 00:18 36.53641 -95.08285 29859 ft 367 kts 244°
2026-05-06 00:18 36.51029 -95.13753 29869 ft 366 kts 244°
2026-05-06 00:19 36.48399 -95.19251 29873 ft 365 kts 244°
2026-05-06 00:19 36.45770 -95.24736 29860 ft 365 kts 244°
2026-05-06 00:20 36.43144 -95.30205 29862 ft 365 kts 244°
2026-05-06 00:20 36.40527 -95.35645 29860 ft 364 kts 243°
2026-05-06 00:21 36.37929 -95.41040 29866 ft 363 kts 244°
2026-05-06 00:21 36.35307 -95.46473 29866 ft 363 kts 244°
2026-05-06 00:22 36.32704 -95.51858 29867 ft 362 kts 244°
2026-05-06 00:22 36.30103 -95.57236 29878 ft 361 kts 244°
2026-05-06 00:23 36.27504 -95.62597 29877 ft 361 kts 244°
2026-05-06 00:23 36.24920 -95.67919 29889 ft 361 kts 243°
2026-05-06 00:24 36.22339 -95.73225 29882 ft 362 kts 243°
2026-05-06 00:24 36.18959 -95.78007 29888 ft 377 kts 226°
2026-05-06 00:25 36.14231 -95.81184 29880 ft 400 kts 209°
2026-05-06 00:25 36.11467 -95.82014 29887 ft 411 kts 201°
2026-05-06 00:25 36.08640 -95.82770 29888 ft 405 kts 206°
2026-05-06 00:26 36.03211 -95.84582 29884 ft 404 kts 207°
2026-05-06 00:26 35.97738 -95.86488 29877 ft 404 kts 207°
2026-05-06 00:27 35.92293 -95.88391 29878 ft 404 kts 207°
2026-05-06 00:27 35.86853 -95.90290 29878 ft 405 kts 207°
2026-05-06 00:28 35.81427 -95.92182 29880 ft 405 kts 207°
2026-05-06 00:28 35.76000 -95.94071 29881 ft 406 kts 207°
2026-05-06 00:29 35.70571 -95.95959 29880 ft 406 kts 207°
2026-05-06 00:29 35.65134 -95.97848 29877 ft 405 kts 207°
2026-05-06 00:30 35.59676 -95.99740 29871 ft 405 kts 207°
2026-05-06 00:30 35.54202 -96.01634 29866 ft 405 kts 207°
2026-05-06 00:31 35.48745 -96.03522 29866 ft 405 kts 207°
2026-05-06 00:31 35.43235 -96.05424 29854 ft 405 kts 207°
2026-05-06 00:32 35.37779 -96.07304 29855 ft 405 kts 207°
2026-05-06 00:32 35.32297 -96.09192 29854 ft 404 kts 207°
2026-05-06 00:33 35.26833 -96.11070 29860 ft 402 kts 207°
2026-05-06 00:33 35.21453 -96.12917 29862 ft 400 kts 207°
2026-05-06 00:34 35.16044 -96.14771 29861 ft 398 kts 207°
2026-05-06 00:34 35.10685 -96.16605 29856 ft 396 kts 207°
2026-05-06 00:35 35.05328 -96.18437 29860 ft 394 kts 207°
2026-05-06 00:35 35.00023 -96.20248 29858 ft 392 kts 207°
2026-05-06 00:36 34.94734 -96.22052 29852 ft 391 kts 207°
2026-05-06 00:36 34.89462 -96.23847 29851 ft 390 kts 207°
2026-05-06 00:37 34.84203 -96.25636 29849 ft 389 kts 208°
2026-05-06 00:37 34.78950 -96.27420 29843 ft 388 kts 207°
2026-05-06 00:38 34.73732 -96.29189 29833 ft 388 kts 208°
2026-05-06 00:38 34.68464 -96.30974 29835 ft 387 kts 207°
2026-05-06 00:39 34.63180 -96.32761 29834 ft 387 kts 207°
2026-05-06 00:39 34.57943 -96.34531 29823 ft 386 kts 208°
2026-05-06 00:40 34.52706 -96.36298 29823 ft 386 kts 208°
2026-05-06 00:40 34.47441 -96.38071 29821 ft 386 kts 207°
2026-05-06 00:41 34.42114 -96.39864 29828 ft 386 kts 207°
2026-05-06 00:41 34.36803 -96.41649 29817 ft 386 kts 208°
2026-05-06 00:42 34.31551 -96.43411 29816 ft 386 kts 207°
2026-05-06 00:42 34.26368 -96.45149 29817 ft 386 kts 207°
2026-05-06 00:43 34.21164 -96.46890 29816 ft 386 kts 208°
2026-05-06 00:43 34.15956 -96.48631 29818 ft 386 kts 207°
2026-05-06 00:44 34.10720 -96.50380 29820 ft 386 kts 207°
2026-05-06 00:44 34.05484 -96.52125 29820 ft 386 kts 208°
2026-05-06 00:45 34.00310 -96.53849 29818 ft 386 kts 208°
2026-05-06 00:45 33.95131 -96.55571 29816 ft 386 kts 208°
2026-05-06 00:46 33.89929 -96.57300 29817 ft 386 kts 207°
2026-05-06 00:46 33.84914 -96.58964 29818 ft 386 kts 207°
2026-05-06 00:47 33.79732 -96.60681 29813 ft 386 kts 207°
2026-05-06 00:47 33.74460 -96.62425 29813 ft 386 kts 207°
2026-05-06 00:48 33.69249 -96.64148 29806 ft 387 kts 207°
2026-05-06 00:48 33.64027 -96.65872 29837 ft 387 kts 206°
2026-05-06 00:49 33.58837 -96.67584 29825 ft 389 kts 206°
2026-05-06 00:49 33.53559 -96.69321 29820 ft 391 kts 206°
2026-05-06 00:50 33.48269 -96.71061 29824 ft 392 kts 206°
2026-05-06 00:50 33.42908 -96.72822 29819 ft 393 kts 206°
2026-05-06 00:51 33.37492 -96.74598 29808 ft 395 kts 206°
2026-05-06 00:51 33.32100 -96.76365 29815 ft 396 kts 206°
2026-05-06 00:52 33.26737 -96.78119 29815 ft 396 kts 206°
2026-05-06 00:52 33.21317 -96.79890 29813 ft 397 kts 206°
2026-05-06 00:53 33.15987 -96.81630 29811 ft 398 kts 206°
2026-05-06 00:53 33.10663 -96.83365 29806 ft 398 kts 206°
2026-05-06 00:54 33.05340 -96.85098 29804 ft 398 kts 206°
2026-05-06 00:54 32.99913 -96.86862 29802 ft 399 kts 205°
2026-05-06 00:55 32.94475 -96.88628 29797 ft 399 kts 206°
2026-05-06 00:55 32.88879 -96.89842 29798 ft 418 kts 193°
2026-05-06 00:55 32.85889 -96.89673 29797 ft 432 kts 185°
2026-05-06 00:56 32.82908 -96.88930 29795 ft 446 kts 175°
2026-05-06 00:56 32.76864 -96.86919 29794 ft 443 kts 178°
2026-05-06 00:57 32.70833 -96.85159 29790 ft 443 kts 178°
2026-05-06 00:57 32.64782 -96.83419 29785 ft 444 kts 178°
2026-05-06 00:58 32.58787 -96.81699 29785 ft 444 kts 178°
2026-05-06 00:58 32.52747 -96.79968 29786 ft 445 kts 178°
2026-05-06 00:59 32.46723 -96.78246 29782 ft 445 kts 179°
2026-05-06 00:59 32.40638 -96.76508 29791 ft 446 kts 178°
2026-05-06 01:00 32.34567 -96.74777 29795 ft 447 kts 178°
2026-05-06 01:00 32.28907 -96.73165 29790 ft 448 kts 178°
2026-05-06 01:01 32.22793 -96.71426 29793 ft 448 kts 179°
2026-05-06 01:01 32.16620 -96.69672 29797 ft 449 kts 178°
2026-05-06 01:02 32.10455 -96.67924 29789 ft 450 kts 178°
2026-05-06 01:02 32.04308 -96.66183 29783 ft 450 kts 179°
2026-05-06 01:03 31.98092 -96.64425 29787 ft 451 kts 178°
2026-05-06 01:03 31.91900 -96.62676 29791 ft 451 kts 178°
2026-05-06 01:04 31.85724 -96.60934 29793 ft 452 kts 178°
2026-05-06 01:04 31.79479 -96.59175 29792 ft 453 kts 178°
2026-05-06 01:05 31.73297 -96.57436 29788 ft 453 kts 178°
2026-05-06 01:05 31.67186 -96.55719 29800 ft 454 kts 178°
2026-05-06 01:05 31.64101 -96.54854 29660 ft 454 kts 178°
2026-05-06 01:06 31.61018 -96.53989 29501 ft 454 kts 178°
2026-05-06 01:06 31.57936 -96.53126 29340 ft 455 kts 178°
2026-05-06 01:06 31.54828 -96.52255 29174 ft 455 kts 178°
2026-05-06 01:06 31.51770 -96.51201 29008 ft 467 kts 171°
2026-05-06 01:07 31.48745 -96.49584 28849 ft 483 kts 162°
2026-05-06 01:07 31.42757 -96.45796 28802 ft 481 kts 163°
2026-05-06 01:08 31.36807 -96.42147 28806 ft 480 kts 163°
2026-05-06 01:08 31.33867 -96.40352 28537 ft 484 kts 163°
2026-05-06 01:08 31.30825 -96.38494 28065 ft 489 kts 162°
2026-05-06 01:08 31.27778 -96.36632 27584 ft 486 kts 162°
2026-05-06 01:09 31.24802 -96.34817 26991 ft 483 kts 163°
2026-05-06 01:09 31.21828 -96.33005 26361 ft 480 kts 162°
2026-05-06 01:09 31.18825 -96.31175 25730 ft 477 kts 162°
2026-05-06 01:09 31.15892 -96.29391 25110 ft 474 kts 162°
2026-05-06 01:10 31.12976 -96.27617 24494 ft 469 kts 162°
2026-05-06 01:10 31.10062 -96.25845 23867 ft 464 kts 161°
2026-05-06 01:10 31.07244 -96.24133 23252 ft 454 kts 161°
2026-05-06 01:10 31.04495 -96.22463 22633 ft 443 kts 161°
2026-05-06 01:11 31.01748 -96.20798 21938 ft 434 kts 161°
2026-05-06 01:11 30.99082 -96.19141 21193 ft 429 kts 159°
2026-05-06 01:11 30.96496 -96.17467 20464 ft 421 kts 159°
2026-05-06 01:11 30.93996 -96.15855 19926 ft 410 kts 159°
2026-05-06 01:12 30.91498 -96.14246 19381 ft 403 kts 159°
2026-05-06 01:12 30.89100 -96.12702 18851 ft 396 kts 159°
2026-05-06 01:12 30.86665 -96.11136 18308 ft 389 kts 158°
2026-05-06 01:12 30.84293 -96.09610 17770 ft 383 kts 158°
2026-05-06 01:13 30.81980 -96.08124 17237 ft 377 kts 158°
2026-05-06 01:13 30.79667 -96.06638 16530 ft 375 kts 158°
2026-05-06 01:13 30.77392 -96.05179 15810 ft 372 kts 158°
2026-05-06 01:13 30.75150 -96.03740 15094 ft 370 kts 158°
2026-05-06 01:14 30.70659 -96.00860 13784 ft 361 kts 157°
2026-05-06 01:14 30.68460 -95.99451 13183 ft 356 kts 156°
2026-05-06 01:14 30.66320 -95.98081 12588 ft 351 kts 156°
2026-05-06 01:15 30.64194 -95.96720 11995 ft 346 kts 156°
2026-05-06 01:15 30.62090 -95.95374 11398 ft 342 kts 156°
2026-05-06 01:15 30.60039 -95.94063 10810 ft 338 kts 155°
2026-05-06 01:15 30.57986 -95.92751 10275 ft 332 kts 155°
2026-05-06 01:16 30.55982 -95.91471 9870 ft 322 kts 155°
2026-05-06 01:16 30.54047 -95.90235 9506 ft 313 kts 155°
2026-05-06 01:16 30.52167 -95.89036 9144 ft 304 kts 155°
2026-05-06 01:16 30.50323 -95.87859 8787 ft 297 kts 155°
2026-05-06 01:17 30.48445 -95.87086 8543 ft 279 kts 175°
2026-05-06 01:17 30.46555 -95.86860 8313 ft 275 kts 177°
2026-05-06 01:17 30.44631 -95.86636 8078 ft 278 kts 177°
2026-05-06 01:17 30.42684 -95.86413 7837 ft 276 kts 177°
2026-05-06 01:18 30.40770 -95.86195 7595 ft 273 kts 178°
2026-05-06 01:18 30.38881 -95.85983 7355 ft 271 kts 177°
2026-05-06 01:18 30.37003 -95.85770 7116 ft 269 kts 178°
2026-05-06 01:18 30.35149 -95.85561 6877 ft 267 kts 178°
2026-05-06 01:19 30.33305 -95.85354 6639 ft 265 kts 178°
2026-05-06 01:19 30.31473 -95.85148 6392 ft 259 kts 178°
2026-05-06 01:19 30.29695 -95.84947 6146 ft 254 kts 178°
2026-05-06 01:19 30.27954 -95.84751 5996 ft 244 kts 178°
2026-05-06 01:20 30.26303 -95.84565 5983 ft 230 kts 178°
2026-05-06 01:20 30.24733 -95.84389 5989 ft 226 kts 178°
2026-05-06 01:20 30.23171 -95.84019 5993 ft 233 kts 156°
2026-05-06 01:20 30.21982 -95.82722 6017 ft 243 kts 122°
2026-05-06 01:21 30.21524 -95.80823 6021 ft 250 kts 103°
2026-05-06 01:21 30.21167 -95.78844 6004 ft 251 kts 106°
2026-05-06 01:21 30.20771 -95.76897 6000 ft 251 kts 107°
2026-05-06 01:21 30.20356 -95.74914 5992 ft 251 kts 107°
2026-05-06 01:22 30.19944 -95.72950 5991 ft 251 kts 107°
2026-05-06 01:22 30.19530 -95.70979 5993 ft 250 kts 107°
2026-05-06 01:22 30.19116 -95.69015 5995 ft 250 kts 107°
2026-05-06 01:22 30.18697 -95.67028 5997 ft 250 kts 107°
2026-05-06 01:23 30.18286 -95.65080 5998 ft 251 kts 107°
2026-05-06 01:23 30.17869 -95.63107 5999 ft 251 kts 107°
2026-05-06 01:23 30.17450 -95.61124 5999 ft 251 kts 107°
2026-05-06 01:23 30.17039 -95.59180 5996 ft 251 kts 107°
2026-05-06 01:24 30.16620 -95.57199 5997 ft 251 kts 107°
2026-05-06 01:24 30.16201 -95.55223 5997 ft 251 kts 107°
2026-05-06 01:24 30.15782 -95.53249 5995 ft 251 kts 107°
2026-05-06 01:24 30.15361 -95.51262 5993 ft 251 kts 107°
2026-05-06 01:25 30.14945 -95.49303 5993 ft 251 kts 107°
2026-05-06 01:25 30.14523 -95.47316 5994 ft 251 kts 107°
2026-05-06 01:25 30.14105 -95.45351 5995 ft 251 kts 107°
2026-05-06 01:25 30.13686 -95.43382 5998 ft 251 kts 107°
2026-05-06 01:26 30.13263 -95.41396 6000 ft 251 kts 107°
2026-05-06 01:26 30.12846 -95.39442 6000 ft 251 kts 107°
2026-05-06 01:26 30.12419 -95.37439 6001 ft 251 kts 107°
2026-05-06 01:26 30.12005 -95.35497 6001 ft 251 kts 108°
2026-05-06 01:27 30.11584 -95.33530 5999 ft 251 kts 108°
2026-05-06 01:27 30.11160 -95.31548 5998 ft 251 kts 108°
2026-05-06 01:27 30.10741 -95.29592 5997 ft 250 kts 108°
2026-05-06 01:27 30.10322 -95.27638 5997 ft 250 kts 108°
2026-05-06 01:28 30.09909 -95.25707 5999 ft 250 kts 108°
2026-05-06 01:28 30.09486 -95.23735 6001 ft 250 kts 108°
2026-05-06 01:28 30.09258 -95.21766 6005 ft 253 kts 92°
2026-05-06 01:28 30.09277 -95.19735 6010 ft 253 kts 93°
2026-05-06 01:29 30.09285 -95.17680 5818 ft 256 kts 93°
2026-05-06 01:29 30.09228 -95.15646 5300 ft 251 kts 107°
2026-05-06 01:29 30.08514 -95.13900 4846 ft 235 kts 133°
2026-05-06 01:29 30.07329 -95.12660 4368 ft 225 kts 153°
2026-05-06 01:30 30.05928 -95.12006 3908 ft 217 kts 172°
2026-05-06 01:30 30.04433 -95.11938 3430 ft 211 kts 190°
2026-05-06 01:30 30.03026 -95.12447 2950 ft 208 kts 207°
2026-05-06 01:30 30.01873 -95.13451 2655 ft 204 kts 224°
2026-05-06 01:31 30.01069 -95.14808 2594 ft 206 kts 242°
2026-05-06 01:31 30.00690 -95.16404 2587 ft 206 kts 260°
2026-05-06 01:31 30.00697 -95.18053 2592 ft 203 kts 265°
2026-05-06 01:31 30.00709 -95.19663 2508 ft 200 kts 265°
2026-05-06 01:32 30.00718 -95.21241 2329 ft 194 kts 264°
2026-05-06 01:32 30.00721 -95.22791 2048 ft 190 kts 264°
2026-05-06 01:32 30.00743 -95.24271 1861 ft 183 kts 266°
2026-05-06 01:32 30.00764 -95.25658 1617 ft 160 kts 264°
2026-05-06 01:33 30.00762 -95.26864 1306 ft 149 kts 261°
2026-05-06 01:33 30.00734 -95.27992 1057 ft 133 kts 263°
2026-05-06 01:33 30.00710 -95.29097 868 ft 139 kts 263°
2026-05-06 01:33 30.00723 -95.30210 699 ft 137 kts 263°
2026-05-06 01:34 30.00711 -95.31303 497 ft 139 kts 266°
2026-05-06 01:34 30.00718 -95.32430 280 ft 142 kts 265°
2026-05-06 01:34 30.00717 -95.33546 108 ft 130 kts 266°
2026-05-06 01:34 30.00716 -95.34455 103 ft 96 kts 270°
2026-05-06 01:35 30.00717 -95.35124 103 ft 67 kts 269°
2026-05-06 01:35 30.00661 -95.35438 103 ft 27 kts 241°
2026-05-06 01:35 30.00558 -95.35571 103 ft 19 kts 240°
2026-05-06 01:35 30.00446 -95.35663 103 ft 19 kts 190°
2026-05-06 01:36 30.00310 -95.35655 103 ft 20 kts 179°
2026-05-06 01:36 30.00185 -95.35600 104 ft 19 kts 142°
2026-05-06 01:36 30.00057 -95.35506 103 ft 24 kts 161°
2026-05-06 01:36 29.99885 -95.35487 103 ft 24 kts 179°
2026-05-06 01:37 29.99706 -95.35485 103 ft 25 kts 183°
2026-05-06 01:37 29.99530 -95.35485 103 ft 25 kts 181°
2026-05-06 01:37 29.99350 -95.35484 103 ft 26 kts 181°
2026-05-06 01:37 29.99161 -95.35484 103 ft 27 kts 180°
2026-05-06 01:38 29.98999 -95.35483 103 ft 24 kts 179°
2026-05-06 01:38 29.98842 -95.35473 103 ft 23 kts 162°
2026-05-06 01:38 29.98678 -95.35383 103 ft 24 kts 152°
2026-05-06 01:38 29.98521 -95.35287 103 ft 25 kts 153°
2026-05-06 01:39 29.98386 -95.35170 103 ft 25 kts 104°
2026-05-06 01:39 29.98382 -95.34978 103 ft 26 kts 90°
2026-05-06 01:39 29.98430 -95.34811 103 ft 22 kts
2026-05-06 01:39 29.98498 -95.34746 103 ft 6 kts 46°
2026-05-06 01:40 29.98504 -95.34738 103 ft 0 kts 47°